TimeEDT,TemperatureF,Dew PointF,Humidity,Sea Level PressureIn,VisibilityMPH,Wind Direction,Wind SpeedMPH,Gust SpeedMPH,PrecipitationIn,Events,Conditions,WindDirDegrees,DateUTC
12:15 AM,44.6,21.2,39,30.31,10.0,SSE,8.1,-,N/A,,Clear,160,2013-04-23 04:15:00
12:35 AM,44.6,23.0,43,30.30,10.0,SSE,9.2,-,N/A,,Clear,160,2013-04-23 04:35:00
12:55 AM,44.6,24.8,46,30.30,10.0,SSE,9.2,-,N/A,,Clear,160,2013-04-23 04:55:00
1:15 AM,42.8,24.8,49,30.30,10.0,South,8.1,-,N/A,,Clear,170,2013-04-23 05:15:00
1:35 AM,42.8,26.6,53,30.30,10.0,SSE,8.1,-,N/A,,Clear,160,2013-04-23 05:35:00
1:55 AM,42.8,26.6,53,30.30,10.0,SSE,6.9,-,N/A,,Clear,160,2013-04-23 05:55:00
2:15 AM,42.8,26.6,53,30.30,10.0,South,6.9,-,N/A,,Clear,170,2013-04-23 06:15:00
2:35 AM,41.0,26.6,57,30.30,10.0,South,6.9,-,N/A,,Clear,170,2013-04-23 06:35:00
2:55 AM,39.2,26.6,61,30.30,10.0,SSE,8.1,-,N/A,,Clear,160,2013-04-23 06:55:00
3:15 AM,39.2,26.6,61,30.29,10.0,SSE,9.2,-,N/A,,Clear,160,2013-04-23 07:15:00
3:35 AM,39.2,26.6,61,30.29,10.0,SSE,5.8,-,N/A,,Clear,160,2013-04-23 07:35:00
3:55 AM,39.2,26.6,61,30.28,10.0,SSE,11.5,-,N/A,,Clear,150,2013-04-23 07:55:00
4:15 AM,39.2,26.6,61,30.28,10.0,SSE,8.1,-,N/A,,Clear,160,2013-04-23 08:15:00
4:35 AM,37.4,26.6,65,30.27,10.0,SSE,9.2,-,N/A,,Clear,160,2013-04-23 08:35:00
4:55 AM,37.4,26.6,65,30.27,10.0,SSE,10.4,-,N/A,,Clear,160,2013-04-23 08:55:00
5:15 AM,37.4,24.8,60,30.26,10.0,South,8.1,-,N/A,,Clear,170,2013-04-23 09:15:00
5:35 AM,37.4,24.8,60,30.26,10.0,SSE,9.2,-,N/A,,Clear,160,2013-04-23 09:35:00
5:55 AM,35.6,26.6,70,30.26,10.0,SSE,9.2,-,N/A,,Clear,160,2013-04-23 09:55:00
6:15 AM,35.6,26.6,70,30.25,10.0,South,6.9,-,N/A,,Clear,170,2013-04-23 10:15:00
6:35 AM,35.6,26.6,70,30.24,10.0,South,6.9,-,N/A,,Clear,170,2013-04-23 10:35:00
6:55 AM,35.6,26.6,70,30.24,10.0,South,9.2,-,N/A,,Clear,170,2013-04-23 10:55:00
7:15 AM,35.6,26.6,70,30.24,10.0,South,11.5,-,N/A,,Clear,170,2013-04-23 11:15:00
7:35 AM,37.4,26.6,65,30.24,10.0,South,11.5,-,N/A,,Clear,170,2013-04-23 11:35:00
7:55 AM,37.4,26.6,65,30.24,10.0,South,9.2,-,N/A,,Clear,170,2013-04-23 11:55:00
8:15 AM,37.4,26.6,65,30.23,10.0,SSE,10.4,-,N/A,,Clear,160,2013-04-23 12:15:00
8:35 AM,39.2,26.6,61,30.22,10.0,South,9.2,16.1,N/A,,Clear,170,2013-04-23 12:35:00
8:55 AM,39.2,26.6,61,30.21,10.0,South,10.4,-,N/A,,Clear,170,2013-04-23 12:55:00
9:15 AM,42.8,28.4,57,30.20,10.0,SSE,6.9,-,N/A,,Clear,160,2013-04-23 13:15:00
9:35 AM,42.8,28.4,57,30.20,10.0,South,9.2,-,N/A,,Clear,170,2013-04-23 13:35:00
9:55 AM,44.6,28.4,53,30.20,10.0,SSE,10.4,-,N/A,,Clear,160,2013-04-23 13:55:00
10:15 AM,46.4,30.2,53,30.19,10.0,South,11.5,-,N/A,,Clear,170,2013-04-23 14:15:00
10:35 AM,46.4,30.2,53,30.20,10.0,South,9.2,16.1,N/A,,Clear,170,2013-04-23 14:35:00
10:55 AM,48.2,30.2,50,30.18,10.0,South,10.4,-,N/A,,Clear,170,2013-04-23 14:55:00
11:15 AM,50.0,30.2,47,30.18,10.0,SSW,8.1,-,N/A,,Clear,200,2013-04-23 15:15:00
11:35 AM,51.8,30.2,44,30.18,10.0,SSW,6.9,-,N/A,,Clear,200,2013-04-23 15:35:00
11:55 AM,53.6,30.2,41,30.18,10.0,WSW,6.9,-,N/A,,Clear,240,2013-04-23 15:55:00
12:15 PM,55.4,32.0,41,30.19,10.0,SW,9.2,-,N/A,,Clear,230,2013-04-23 16:15:00
12:35 PM,55.4,32.0,41,30.18,10.0,WSW,9.2,-,N/A,,Clear,250,2013-04-23 16:35:00
12:55 PM,57.2,30.2,36,30.16,10.0,SSW,10.4,-,N/A,,Clear,200,2013-04-23 16:55:00
1:15 PM,57.2,32.0,38,30.15,10.0,South,5.8,-,N/A,,Clear,190,2013-04-23 17:15:00
1:35 PM,59.0,32.0,36,30.13,10.0,WSW,3.5,-,N/A,,Clear,240,2013-04-23 17:35:00
1:55 PM,60.8,30.2,31,30.13,10.0,SW,6.9,-,N/A,,Clear,220,2013-04-23 17:55:00
2:15 PM,60.8,33.8,36,30.11,10.0,South,5.8,-,N/A,,Clear,170,2013-04-23 18:15:00
2:35 PM,62.6,32.0,32,30.10,10.0,SSE,4.6,16.1,N/A,,Clear,160,2013-04-23 18:35:00
2:55 PM,62.6,32.0,32,30.08,10.0,SSE,9.2,-,N/A,,Clear,160,2013-04-23 18:55:00
3:15 PM,62.6,32.0,32,30.07,10.0,SE,9.2,-,N/A,,Clear,130,2013-04-23 19:15:00
3:35 PM,62.6,32.0,32,30.06,10.0,South,11.5,16.1,N/A,,Clear,170,2013-04-23 19:35:00
3:55 PM,64.4,32.0,30,30.05,10.0,SSE,4.6,-,N/A,,Clear,150,2013-04-23 19:55:00
4:15 PM,64.4,30.2,28,30.05,10.0,South,8.1,-,N/A,,Clear,180,2013-04-23 20:15:00
4:35 PM,64.4,30.2,28,30.05,10.0,SSW,3.5,-,N/A,,Clear,200,2013-04-23 20:35:00
4:55 PM,64.4,30.2,28,30.03,10.0,SSE,8.1,-,N/A,,Clear,160,2013-04-23 20:55:00
5:15 PM,64.4,30.2,28,30.03,10.0,South,9.2,-,N/A,,Clear,190,2013-04-23 21:15:00
5:35 PM,66.2,30.2,26,30.03,10.0,SSE,10.4,-,N/A,,Clear,160,2013-04-23 21:35:00
5:55 PM,64.4,28.4,26,30.02,10.0,South,10.4,-,N/A,,Clear,190,2013-04-23 21:55:00
6:15 PM,64.4,28.4,26,30.01,10.0,SSW,10.4,-,N/A,,Clear,210,2013-04-23 22:15:00
6:35 PM,64.4,28.4,26,30.01,10.0,South,9.2,17.3,N/A,,Clear,170,2013-04-23 22:35:00
6:55 PM,62.6,28.4,27,30.01,10.0,South,8.1,-,N/A,,Clear,180,2013-04-23 22:55:00
7:15 PM,62.6,28.4,27,30.01,10.0,SSW,8.1,-,N/A,,Clear,210,2013-04-23 23:15:00
7:35 PM,62.6,30.2,30,30.01,10.0,South,9.2,-,N/A,,Clear,180,2013-04-23 23:35:00
7:55 PM,60.8,28.4,29,30.01,10.0,South,9.2,-,N/A,,Clear,180,2013-04-23 23:55:00
8:15 PM,60.8,28.4,29,30.01,10.0,South,8.1,-,N/A,,Clear,180,2013-04-24 00:15:00
8:35 PM,60.8,28.4,29,30.01,10.0,South,11.5,16.1,N/A,,Clear,190,2013-04-24 00:35:00
8:55 PM,59.0,28.4,31,30.01,10.0,South,8.1,-,N/A,,Clear,180,2013-04-24 00:55:00
9:15 PM,59.0,28.4,31,30.00,10.0,South,9.2,-,N/A,,Clear,180,2013-04-24 01:15:00
9:35 PM,57.2,28.4,33,29.99,10.0,South,9.2,-,N/A,,Clear,170,2013-04-24 01:35:00
9:55 PM,57.2,28.4,33,29.99,10.0,South,6.9,-,N/A,,Clear,170,2013-04-24 01:55:00
10:15 PM,57.2,28.4,33,29.98,10.0,South,9.2,-,N/A,,Clear,180,2013-04-24 02:15:00
10:35 PM,57.2,30.2,36,29.98,10.0,South,11.5,-,N/A,,Clear,170,2013-04-24 02:35:00
10:55 PM,57.2,30.2,36,29.98,10.0,South,11.5,19.6,N/A,,Clear,170,2013-04-24 02:55:00
11:15 PM,55.4,32.0,41,29.97,10.0,South,12.7,18.4,N/A,,Clear,170,2013-04-24 03:15:00
11:35 PM,55.4,33.8,44,29.97,10.0,SSE,10.4,-,N/A,,Scattered Clouds,160,2013-04-24 03:35:00
11:55 PM,55.4,33.8,44,29.95,10.0,South,16.1,20.7,N/A,,Mostly Cloudy,170,2013-04-24 03:55:00